Flag for Trinidad and Tobago Weather past 2 weeks in Chaguanas, Trinidad and Tobago

Now
73 °F

Passing clouds.


Feels Like: 72 °F
Forecast: 75 / 89 °F
Wind: No wind

Location: Piarco International Airport - Trinidad

Current Time: May 26, 2015 at 4:23:37 AM

Latest Report: May 26, 2015 at 3:00 AM


Visibility: N/A

Pressure: 29.92 "Hg

Humidity: 89%

Dew point: 70 °F

Location of ChaguanasLocation

Historic Weather in Chaguanas — Graph

°F

Chaguanas temperature yesterday

Maximum temperature yesterday: 91 °F (at 2:00 PM)
Minimum temperature yesterday: 75 °F (at 5:00 AM)
Average temperature yesterday: 82 °F

Past Weeks' High & Low Weather Summary

 TemperatureHumidityPressure
High93 °F (May 19, 1:00 PM)94% (May 19, 6:00 AM)30.04 "Hg (May 19, 6:00 AM)
Low73 °F (May 26, 2:00 AM)41% (May 14, 1:00 PM)29.86 "Hg (May 20, 4:00 PM)
Average83 °F69%29.95 "Hg
* Reported May 11 3:00 AM — May 26 3:00 AM, Chaguanas, Weather by CustomWeather, © 2015

Note: Actual official high and low records may vary slightly from our data, if they occured in-between our weather recording intervals... More about our weather records

Advertising

Chaguanas weather history for previous 24 hours

 ConditionsComfort  
Time TempWeatherWind HumidityBarometerVisibility
3:00 AM
Tue, May 26
73 °FPassing clouds.No wind89%29.92 "HgN/A
2:00 AM73 °FPassing clouds.No wind89%29.92 "HgN/A
1:00 AM75 °FPassing clouds.No wind83%29.95 "HgN/A
12:00 AM75 °FPassing clouds.No wind83%29.95 "HgN/A
11:00 PM
Mon, May 25
77 °FPassing clouds.No wind79%29.98 "HgN/A
10:00 PM77 °FPassing clouds.No wind79%29.98 "HgN/A
9:00 PM79 °FPassing clouds.No wind74%29.95 "HgN/A
8:00 PM79 °FPassing clouds.No wind74%29.95 "HgN/A
7:00 PM81 °FPassing clouds.6 mph70%29.92 "HgN/A
6:00 PM82 °FPassing clouds.9 mph62%29.92 "HgN/A
5:00 PM84 °FPassing clouds.14 mph58%29.92 "HgN/A
4:00 PM88 °FPassing clouds.16 mph52%29.92 "HgN/A
3:00 PM88 °FPassing clouds.16 mph49%29.92 "HgN/A
2:00 PM91 °FScattered clouds.18 mph44%29.92 "HgN/A
1:00 PM90 °FPassing clouds.14 mph46%29.95 "HgN/A
12:00 PM90 °FPassing clouds.16 mph55%29.98 "HgN/A
11:00 AM88 °FPassing clouds.14 mph66%29.98 "HgN/A
10:00 AM86 °FPassing clouds.18 mph66%29.98 "HgN/A
9:00 AM86 °FPassing clouds.14 mph66%29.98 "HgN/A
8:00 AM79 °FPassing clouds.No wind84%29.98 "HgN/A
7:00 AM79 °FSprinkles. Scattered clouds.No wind79%29.95 "Hg4 mi
6:00 AM75 °FPassing clouds.No wind83%29.95 "Hg5 mi
5:00 AM75 °FPassing clouds.No wind83%29.95 "HgN/A
4:00 AM77 °FPassing clouds.No wind79%29.95 "HgN/A
Weather by CustomWeather, © 2015

See weather overviewHow to use our weather pages